Regional Weather Roundup
Issued by NWS Charleston, SC

Current Version | Previous Version | Text Only | Print | Product List | Glossary Off
Versions: 1 2 3 4 5 6 7 8 9 10 11 12 13 14 15 16 17 18 19 20 21 22 23 24 25 26 27 28 29 30 31 32 33 34 35 36 37 38 39 40 41 42 43 44 45 46 47 48 49 50

000
ASUS42 KCHS 051727
RWRCHS

REGIONAL WEATHER ROUNDUP
NATIONAL WEATHER SERVICE CHARLESTON SC
100 PM EDT TUE MAY 05 2015

NOTE: "FAIR" INDICATES FEW OR NO CLOUDS BELOW 12,000 FEET WITH NO
SIGNIFICANT WEATHER AND/OR OBSTRUCTIONS TO VISIBILITY.

NOT ALL STATIONS ARE QUALITY CONTROLLED BY THE NATIONAL
WEATHER SERVICE. USE DATA WITH CAUTION...ESPECIALLY
DEWPOINT OBSERVATIONS.

SCZ027-030-031-034>040-042>050-051800-
...SOUTHEAST SOUTH CAROLINA...

CITY           SKY/WX    TMP DP  RH WIND       PRES   REMARKS
N CHARLESTON   PTSUNNY   77  54  44 SE14      30.33S
WATERFRONT PRK   N/A     72 N/A N/A E14         N/A
MOUNT PLEASANT FAIR      75  55  50 MISG      30.32F
PINOPOLIS      NOT AVBL
MONCKS CORNER  PTSUNNY   79  54  41 SE5       30.32S
SUMMERVILLE    FAIR      81  54  39 E9        30.33S
BEAUFORT MCAS  MOSUNNY   76  58  53 E12G17    30.32S
BEAUFORT ARPT  FAIR      77  61  57 E13       30.31F
HILTON HEAD IS MOSUNNY   75  61  60 NE8G18    30.33F
WALTERBORO     PTSUNNY   77  54  44 SE13      30.32F
ALLENDALE      FAIR      79  55  44 VRB7G15   30.30F

...SOUTHERN MIDLANDS AND PEE DEE...

CITY           SKY/WX    TMP DP  RH WIND       PRES   REMARKS
GEORGETOWN     NOT AVBL
KINGSTREE      NOT AVBL
ORANGEBURG     SUNNY     79  52  38 VRB6      30.32F
BARNWELL       FAIR      81  54  39 E12       30.32F
AIKEN          FAIR      77  48  36 E6        30.35F
MANNING        FAIR      77  50  38 CALM      30.32F
COLUMBIA       MOSUNNY   79  53  40 E7        30.32F
SUMTER         SUNNY     79  52  39 E8        30.31F
FLORENCE       SUNNY     80  54  40 VRB7      30.33F
MYRTLE BEACH   SUNNY     75  54  46 SE13      30.37
N MYRTLE BEACH SUNNY     76  54  46 SE9       30.35S

$$

GAZ063-065-086>088-099>101-113>116-118-119-134>141-150-051800-
...SOUTHEAST GEORGIA...

CITY           SKY/WX    TMP DP  RH WIND       PRES   REMARKS
SAVANNAH ARPT  PTSUNNY   78  55  44 E15       30.31F
HUNTER AAF     MOSUNNY   77  59  53 E13G21    30.28F
FORT STEWART   PTSUNNY   77  57  50 E14       30.28F
STATESBORO       N/A     78  55  45 SE10      30.30F
SYLVANIA       MOSUNNY   78  56  45 E8        30.31F
CLAXTON        FAIR      79  57  47 E13       30.29F

...CSRA...CENTRAL AND FAR SOUTHEAST GEORGIA...

CITY           SKY/WX    TMP DP  RH WIND       PRES   REMARKS
THOMSON        SUNNY     80  57  44 CALM      30.35F
AUGUSTA-BUSH   SUNNY     78  53  41 VRB3      30.31F
AUGUSTA-DANIEL SUNNY     80  51  36 MISG      30.32F
SWAINSBORO     FAIR      81  32  17 NE14G21   30.30F
VIDALIA        MOSUNNY   77  55  47 E15       30.29F
EASTMAN        PTSUNNY   81  55  40 E12       30.31F
HAZLEHURST     PTSUNNY   80  56  44 E8        30.27F
ALMA           PTSUNNY   78  56  46 E9G16     30.27F
WAYCROSS       PTSUNNY   83  63  50 E12G20    30.25F
JESUP          FAIR      81  61  50 E16       30.27F
BAXLEY         PTSUNNY   81  55  41 E13       30.27F
BRUNSWICK      MOSUNNY   77  55  47 E18G25    30.28F
SAINT SIMONS   PTSUNNY   77  59  53 E16G41    30.28F

$$

SCZ027-028-034-036>038-045-046-048>050-GAZ119-141-051800-
...LAKE AND SUPPLEMENTAL COASTAL OBSERVATIONS...

STATION/POSITION TIME  TEMP    WIND        PRES    WAVE   SWELL
                       AIR SEA DIR/SP/G            HT/PER HT/PER/DIR
                 (UTC) (F)     (DEG/KT/KT) (MB)    (FT/S) (FT/S/D)
UPR LAKE MARION  NOT AVBL
WINYAH BAY       1645   72      70/ 10     1027.0S
LAKE MURRAY      1600   72     200/  4/  5 1026.8F
ACE BASIN NERRS  1645   78     100/  5     1027.0S
FORT PULASKI     1700   72 71   40/ 14/ 18 1026.9F
SAPELO ISLAND    1600   76      60/ 13     1026.0S

$$

ANZ835-935-AMZ111-154-330-350-352-354-370-450-454-472-051800-
...C-MAN AND BUOY OBSERVATIONS...

STATION/POSITION TIME  TEMP    WIND        PRES    WAVE   SWELL
                       AIR SEA DIR/SP/G            HT/PER HT/PER/DIR
                 (UTC) (F)     (DEG/KT/KT) (MB)    (FT/S) (FT/S/D)
BUOY 41004       1650   72 73   50/ 14/ 16 1026.6S   3/ 7   2/ 7
BUOY 41008       1650   71 70   50/ 12/ 14 1025.7F   3/ 7   2/100/ 7
FOLLY BEACH CMAN 1700   72      60/ 14/ 16 1027.1F
CAPERS NEARSHORE 1608   71      60/ 12/ 16 1027.5R
FRIPP NEARSHORE  1600   72      70/ 14/ 16 1026.0S


STATION/POSITION TIME  TEMP    WIND        PRES    WAVE   SWELL
                       AIR SEA DIR/SP/G            HT/PER HT/PER/DIR
                 (UTC) (F)     (DEG/KT/KT) (MB)    (FT/S) (FT/S/D)
5E ST. MARYS GA  1621      73                N/A     4/ 6   2/100/13
FRYING PAN BUOY  1650   72 72   90/ 10/ 12 1028.5F   3/ 6   3/140/ 6
BUOY 41025       1650   73 77  150/ 10/ 12 1028.7F   3/ 8   2/ 70/ 8
CAPE LOOKOUT NC  1700   72     120/  5/  6 1027.9F
BUOY 41002       1650   70 70  100/ 17/ 21 1027.1R   6/ 6   3/ 60/ 9
BUOY 41010       1620   75 78   90/ 19/ 23 1021.8F
ST AUGUSTINE FL  1700   73 72   80/  9/ 10 1024.4F


$$



USA.gov is the U.S. government's official web portal to all federal, state and local government web resources and services.